HK4D-13 Weather Reports


time (UTC)temp
C
wind
direction
speed
KPH
gust
KPH
rain 1hr
cm
rain 24hr
cm
rain mn
cm
humidity
%
barometer
mb
20260503072443 15 0 1.6 0.0 0.00 0.00 0.00 98 1016.0
20260503071440 15 0 1.6 0.0 0.00 0.00 0.00 98 1016.0
20260503070439 15 0 3.2 0.0 0.00 0.00 0.00 98 1016.0
20260503054430 15 0 3.2 0.0 0.00 0.00 0.00 98 1018.0
20260503053429 15 0 3.2 0.0 0.00 0.00 0.00 98 1018.0
20260503052428 15 0 3.2 0.0 0.00 0.00 0.00 98 1018.0
20260503051429 15 0 3.2 0.0 0.00 0.00 0.00 98 1018.0
20260503050424 15 0 3.2 0.0 0.00 0.00 0.00 98 1018.0
20260503045424 15 0 3.2 0.0 0.00 0.00 0.00 98 1018.0
20260503044423 15 0 3.2 0.0 0.00 0.00 0.00 98 1018.0
20260503043423 15 0 3.2 0.0 0.00 0.00 0.00 98 1018.0
20260503042422 15 0 3.2 0.0 0.00 0.00 0.00 98 1018.0
20260503041422 15 0 3.2 0.0 0.00 0.00 0.00 97 1018.0
20260503040422 15 360 3.2 0.0 0.00 0.00 0.00 96 1018.0
20260503035421 15 360 3.2 0.0 0.00 0.00 0.00 96 1018.0
20260503034419 15 360 3.2 0.0 0.00 0.00 0.00 96 1018.0
20260503033417 15 360 3.2 0.0 0.00 0.00 0.00 96 1018.0
20260503032416 15 360 3.2 0.0 0.00 0.00 0.00 96 1018.0
20260503031415 15 360 3.2 0.0 0.00 0.00 0.00 97 1018.0
20260503030415 15 0 3.2 0.0 0.00 0.00 0.00 98 1018.0
20260503025414 15 0 3.2 0.0 0.00 0.00 0.00 98 1018.0
20260503024414 15 0 3.2 0.0 0.00 0.00 0.00 98 1018.0
20260503023412 15 0 3.2 0.0 0.00 0.00 0.00 98 1018.0
20260503022409 15 0 3.2 0.0 0.00 0.00 0.00 97 1017.0
20260503021408 15 0 3.2 0.0 0.00 0.00 0.00 97 1017.0
20260503020406 16 180 16.1 0.0 0.00 0.00 0.00 93 1017.0
20260503015406 16 180 16.1 0.0 0.00 0.00 0.00 93 1017.0
20260503014405 16 180 16.1 0.0 0.00 0.00 0.00 93 1017.0
20260503013405 16 180 16.1 0.0 0.00 0.00 0.00 93 1017.0
20260503012403 16 180 16.1 0.0 0.00 0.00 0.00 93 1016.0
20260503011402 16 180 16.1 0.0 0.00 0.00 0.00 93 1016.0
20260503010401 16 180 16.1 0.0 0.00 0.00 0.00 93 1016.0
20260503005401 16 180 16.1 0.0 0.00 0.00 0.00 93 1016.0
20260503004356 16 180 16.1 0.0 0.00 0.00 0.00 92 1015.0
20260503003356 16 180 16.1 0.0 0.00 0.00 0.00 90 1014.0
20260503002353 16 180 16.1 0.0 0.00 0.00 0.00 90 1014.0
20260503001353 16 180 16.1 0.0 0.00 0.00 0.00 87 1014.0
20260503000352 16 180 16.1 0.0 0.00 0.00 0.00 83 1014.0
20260502235350 16 180 16.1 0.0 0.00 0.00 0.00 83 1014.0
20260502234348 16 180 16.1 0.0 0.00 0.00 0.00 82 1014.0
20260502233347 16 180 16.1 0.0 0.00 0.00 0.00 81 1014.0
20260502232347 16 180 16.1 0.0 0.00 0.00 0.00 80 1015.0
20260502231346 16 180 16.1 0.0 0.00 0.00 0.00 79 1015.0
20260502230346 16 180 16.1 0.0 0.00 0.00 0.00 76 1015.0
20260502225344 16 180 16.1 0.0 0.00 0.00 0.00 76 1014.0
20260502224344 16 180 16.1 0.0 0.00 0.00 0.00 76 1014.0
20260502223342 16 180 16.1 0.0 0.00 0.00 0.00 76 1014.0
20260502222340 16 180 16.1 0.0 0.00 0.00 0.00 76 1013.0
20260502221340 16 180 16.1 0.0 0.00 0.00 0.00 76 1013.0
20260502220338 16 180 16.1 0.0 0.00 0.00 0.00 76 1013.0
20260502215337 16 180 16.1 0.0 0.00 0.00 0.00 77 1013.0
20260502214335 16 180 16.1 0.0 0.00 0.00 0.00 78 1013.0
20260502213334 16 180 16.1 0.0 0.00 0.00 0.00 79 1013.0
20260502212334 16 180 16.1 0.0 0.00 0.00 0.00 80 1012.0
20260502211333 16 180 16.1 0.0 0.00 0.00 0.00 82 1012.0
20260502210333 15 180 16.1 0.0 0.00 0.00 0.00 84 1012.0
20260502205332 15 180 16.1 0.0 0.00 0.00 0.00 84 1012.0
20260502204330 15 180 16.1 0.0 0.00 0.00 0.00 84 1012.0
20260502203329 15 180 16.1 0.0 0.00 0.00 0.00 84 1012.0
20260502202328 15 180 16.1 0.0 0.00 0.00 0.00 84 1012.0
20260502201327 15 180 16.1 0.0 0.00 0.00 0.00 83 1012.0
20260502200326 15 180 16.1 0.0 0.00 0.00 0.00 83 1012.0
20260502195325 15 180 16.1 0.0 0.00 0.00 0.00 83 1012.0
20260502194324 15 180 16.1 0.0 0.00 0.00 0.00 83 1012.0
20260502193324 15 180 16.1 0.0 0.00 0.00 0.00 82 1012.0
20260502192323 15 180 16.1 0.0 0.00 0.00 0.00 81 1012.0
20260502191322 15 180 16.1 0.0 0.00 0.00 0.00 80 1012.0
20260502190321 17 60 6.4 0.0 0.00 0.00 0.00 75 1012.0
20260502185318 17 60 6.4 0.0 0.00 0.00 0.00 75 1012.0
20260502184317 17 60 6.4 0.0 0.00 0.00 0.00 75 1012.0
20260502183316 17 60 6.4 0.0 0.00 0.00 0.00 75 1012.0
20260502182315 17 60 6.4 0.0 0.00 0.00 0.00 75 1013.0
20260502181315 17 60 6.4 0.0 0.00 0.00 0.00 75 1013.0
20260502180314 17 30 6.4 0.0 0.00 0.00 0.00 75 1013.0
20260502170311 17 20 4.8 0.0 0.00 0.00 0.00 69 1015.0
20260502164307 17 20 4.8 0.0 0.00 0.00 0.00 70 1015.0
20260502163307 17 20 4.8 0.0 0.00 0.00 0.00 71 1015.0
20260502162300 17 20 4.8 0.0 0.00 0.00 0.00 73 1015.0
20260502161258 17 20 4.8 0.0 0.00 0.00 0.00 74 1015.0
20260502160258 15 240 4.8 0.0 0.00 0.00 0.00 86 1015.0
20260502152254 14 240 4.8 0.0 0.00 0.00 0.00 89 1015.0
20260502151254 14 240 4.8 0.0 0.00 0.00 0.00 89 1015.0
20260502150252 14 240 4.8 0.0 0.00 0.00 0.00 89 1015.0
20260502130241 13 240 4.8 0.0 0.00 0.00 0.00 97 1016.0
20260502123236 13 240 4.8 0.0 0.00 0.00 0.00 97 1016.0
20260502122234 13 240 4.8 0.0 0.00 0.00 0.00 97 1016.0
20260502121234 13 240 4.8 0.0 0.00 0.00 0.00 98 1016.0
20260502120233 13 240 4.8 0.0 0.00 0.00 0.00 99 1016.0
20260502115232 13 240 4.8 0.0 0.00 0.00 0.00 99 1016.0
20260502114231 13 240 4.8 0.0 0.00 0.00 0.00 99 1016.0
20260502113231 13 240 4.8 0.0 0.00 0.00 0.00 99 1016.0
20260502112230 13 240 4.8 0.0 0.00 0.00 0.00 99 1015.0
20260502111228 13 240 4.8 0.0 0.00 0.00 0.00 99 1015.0
20260502110227 13 240 4.8 0.0 0.00 0.00 0.00 99 1015.0
20260502105225 13 240 4.8 0.0 0.00 0.00 0.00 99 1015.0
20260502104225 13 240 4.8 0.0 0.00 0.00 0.00 99 1015.0
20260502103224 13 240 4.8 0.0 0.00 0.00 0.00 99 1015.0
20260502102224 13 240 4.8 0.0 0.00 0.00 0.00 99 1015.0
20260502101223 13 240 4.8 0.0 0.00 0.00 0.00 99 1015.0
20260502100221 13 240 4.8 0.0 0.00 0.00 0.00 99 1015.0
20260502091217 13 240 4.8 0.0 0.00 0.00 0.00 99 1014.0
20260502090213 13 0 1.6 0.0 0.00 0.00 0.00 99 1014.0